sat.trackr.live / text

‹ back to catalog

STARLINK-34916

NORAD 65427 · 2025-192Z

PAYLOAD ACTIVE UNKNOWN

§ Identity

Operator
Country
US
Launch date
2025-08-31
Launch site
AFETR
Launch vehicle
Mass (kg)
RCS (m²)

Purposes: comms

External: N2YO · Heavens-Above · Gunter

§ Orbital elements

Epoch: 2026-05-24T22:53:52.660608Z

Period
94.11 min
Inclination
53.1555°
Eccentricity
0.0001060
Mean motion
15.30203341 rev/d
Perigee alt
474.5 km
Apogee alt
475.9 km
Semi-major
6,853.3 km
B*
6.3343e-4
RAAN
237.8939°
Arg perigee
79.8043°
Mean anomaly
280.3078°
Rev number
4,106

§ Raw data

STARLINK-349161 65427U 25192Z   26144.95408172  .00018450  00000+0  63343-3 0  99952 65427  53.1555 237.8939 0001060  79.8043 280.3078 15.30203341 41060

JSON: /api/v1/satellites/65427 · /tle

For live sub-satellite position, see the globe view (requires WebGL).

§ Visibility from observer

Set your observer location to see the next 7 days of passes ≥ 10°. The values pass through the URL so the page stays shareable.

No JS? Fill the form by hand. The geolocation button needs JavaScript.